Nearby METAR Reports

 

YAMB - Amberley, Australia
Distance from station: NW 41km
Updated: 25/04/2024 15:30
Overcast
Overcast
 Wind from E
Wind: E 9 km/h
Temperature: 27°C
Heat Index: 27°C
Dew Point: 15°C
Humidity: 48%
Barometer: 1014 hPa
Clouds: Overcast
Visibility: 10 km
Cloud details: Overcast 3200 m
2024/04/25 05:30 YAMB 250530Z AUTO 09005KT 9999 // OVC105 27/15 Q1014 RF00.0/000.0
YBBN - Brisbane Intl Ar, Australia
Distance from station: N 55km
Updated: 25/04/2024 15:30
Mostly Cloudy
Mostly Cloudy
 Wind from E
Wind: E 13 km/h
Temperature: 24°C
Dew Point: 19°C
Humidity: 74%
Barometer: 1014 hPa
Clouds: Mostly Cloudy
Visibility: 10 km
Cloud details: Few Clouds 1067 m
Mostly Cloudy 2896 m
Mostly Cloudy 8534 m
2024/04/25 05:30 YBBN 250530Z 09007KT 9999 FEW035 BKN095 BKN280 24/19 Q1014 RF00.0/000.0
 
YBCG - Coolangatta Aws, Australia
Distance from station: SE 57km
Updated: 25/04/2024 15:30
Partly Cloudy
Partly Cloudy
 Wind from S
Wind: S 22 km/h
Temperature: 23°C
Dew Point: 17°C
Humidity: 69%
Barometer: 1015 hPa
Clouds: Partly Cloudy
Visibility: 10 km
Cloud details: Partly Cloudy 792 m
2024/04/25 05:30 YBCG 250530Z AUTO 17012KT 9999 // SCT026 23/17 Q1015 RF00.0/000.0
YLIS - Lismore Arpt, Australia
Distance from station: SSE 110km
Updated: 16/11/2022 10:09
NOT Current
Mostly Cloudy
Mostly Cloudy
 Wind from W
Wind: W 28 km/h
Temperature: 27°C
Dew Point: 11°C
Humidity: 37%
Barometer: 1007 hPa
Clouds: Mostly Cloudy
Visibility: 10 km
Cloud details: Mostly Cloudy 2195 m
2022/11/16 00:09 YLIS 160009Z AUTO 26015KT 9999 // BKN072 27/11 Q1007
 
YCAS - Casino Airport, Australia
Distance from station: S 113km
Updated: 14/11/2022 13:33
NOT Current

 Wind from N
Wind: N 28 km/h, Gust: 48 km/h
Temperature: 31°C
Heat Index: 33°C
Dew Point: 19°C
Humidity: 49%
Barometer: 1004 hPa
2022/11/14 03:33 YCAS 140333Z AUTO 35015G26KT //// // ////// 31/19 Q1004
YBNA - Ballina Byron G., Australia
Distance from station: SSE 119km
Updated: 12/05/2022 10:00
NOT Current
Mostly Cloudy
Mostly Cloudy
 Wind from ENE
Wind: ENE 28 km/h
Temperature: 23°C
Dew Point: 17°C
Humidity: 69%
Barometer: 1020 hPa
Clouds: Mostly Cloudy
Visibility: 10 km
Cloud details: Partly Cloudy 945 m
Mostly Cloudy 1158 m
Mostly Cloudy 1494 m
2022/05/12 00:00 YBNA 120000Z AUTO 07015KT 9999 // SCT031 BKN038 BKN049 23/17 Q1020
 
YBOK - Oakey (army/Civ), Australia
Distance from station: WNW 139km
Updated: 12/05/2022 10:00
NOT Current
Light rain, Overcast
Light rain, Overcast
 Wind from E
Wind: E 20 km/h
Temperature: 19°C
Dew Point: 18°C
Humidity: 94%
Barometer: 1018 hPa
Summary: Light Rain
Clouds: Overcast
Visibility: 3 km
Cloud details: Mostly Cloudy 244 m
Overcast 671 m
2022/05/12 00:00 YBOK 120000Z 09011KT 3000 -RA BKN008 OVC022 19/18 Q1018